Location: Beverley
(50.2667°N, 107.9667°W)
Time: 02:54:41
(UTC+00:00)

ZACube-1 - Visible Passes

Search period start: 29 June 2022 00:00
Search period end: 09 July 2022 00:00
Orbit: 581 x 662 km, 97.6° (Epoch: 28 June)

Date Brightness Start Highest point End Pass type
(mag) Time Alt. Az. Time Alt. Az. Time Alt. Az.
29 Jun ? 09:44:22 10° ENE 09:45:56 12° E 09:47:30 10° ESE visible
30 Jun ? 10:01:02 10° NE 10:03:58 17° E 10:06:56 10° SE visible
01 Jul ? 10:18:18 10° NE 10:21:58 25° E 10:25:40 10° SSE visible
04 Jul ? 09:38:15 10° ENE 09:38:45 10° E 09:39:15 10° E visible
05 Jul ? 09:54:09 10° NE 09:56:48 15° E 09:59:27 10° SE visible
06 Jul ? 10:11:18 10° NE 10:14:48 22° E 10:18:20 10° SE visible
